Погода в Эрешине

Бразилия     27°38′23″S   52°16′44″W
темп.,
°C
ветер,
м/с
пор.,
м/с
влажн.,
%
обл.,
%
осадки,
мм/ч
давл.,
гПа
погр.,
м
22 мая, вс
вс2200:00+8св228979 0.0 102411
03:00+7св228987 0.0 102317
06:00+7св2291100 0.0 102322
09:00+10всв118295 0.0 1024120
12:00+15с22657 0.0 1022625
15:00+16с2360100 0.0 1020815
18:00+12св1178100 0.0 102010
21:00+10всв1181100 0.0 102110
23 мая, пн
пн2300:00+10св2280100 0.0 102037
03:00+10в2381100 0.0 101845
06:00+10ссв228289 0.1 101919
09:00+13св227978 0.1 1021121
12:00+17св34667 0.0 1021505
15:00+18св34621 0.0 1018901
18:00+13св11790 0.0 101910
21:00+12св11820 0.0 102010
24 мая, вт
вт2400:00+10св23880 0.0 102040
03:00+9св23895 0.0 102047
06:00+9всв23900 0.0 102044
09:00+12св35810 0.0 1021158
12:00+18ссв35660 0.0 1020456
15:00+20с24630 0.0 1018651
18:00+15всв11830 0.0 101911
21:00+13св22860 0.0 102111
25 мая, ср
ср2500:00+13св22900 0.0 102226
03:00+11св23920 0.0 102145
06:00+10св23910 0.0 102144
09:00+14св36830 0.0 1023146
12:00+20ссв47650 0.0 1021413
15:00+22с37660 0.0 1019706
18:00+17ссз22830 0.0 101911
21:00+15ссв11840 0.0 102111
26 мая, чт
чт2600:00+14ссв22910 0.0 102216
03:00+13ссв23920 0.0 102132
06:00+12св34916 0.0 102160
09:00+15св36815 0.0 1021140
12:00+21ссв3562100 0.0 1020421
15:00+22сз2460100 0.0 1018743
18:00+17с1180100 0.0 101911
21:00+15ссв22829 0.0 101912